Location: Spring Creek
(38.2870°N, 100.2160°W)
Time: 09:23:05
(UTC+00:00)

CZ-2C R/B - Pass Details

Date: 08 May 2021
Orbit: 390 x 580 km, 35.0° (Epoch: 21 June)

Event Time Altitude Azimuth Distance (km) Brightness Sun altitude
Exits shadow 09:40:26 34° 131° (SE) 669 1.8 -19.9°
Drops below altitude 10° 09:42:36 10° 104° (ESE) 1,428 3.9 -19.6°
Sets 09:44:45 0° 98° (E) 2,303 5.1 -19.2°
